GEFSMA_prec_meanprecacc_024.txt.gz
Total_Precipitation_Accumulation
0.00 0.00 0.00 0.00 0.01 0.01 0.02 0.03 0.05 0.08 0.09 0.09 0.11 0.11 0.12 0.11 0.09 0.10 0.09 0.10 0.10 0.09 0.09 0.16 0.30 0.60 0.88 0.92 0.96 0.86 0.73 0.62 0.39 0.18 0.12 0.12 0.09 0.07 0.04 0.05 0.05 0.05 0.05
0.00 0.00 0.00 0.00 0.00 0.00 0.00 0.00 0.01 0.02 0.02 0.03 0.04 0.05 0.07 0.08 0.08 0.11 0.12 0.14 0.13 0.11 0.10 0.11 0.17 0.34 0.65 0.86 0.99 1.14 0.96 0.80 0.68 0.41 0.17 0.11 0.08 0.06 0.05 0.04 0.04 0.05 0.05
0.00 0.00 0.00 0.00 0.00 0.00 0.00 0.00 0.00 0.00 0.00 0.01 0.01 0.01 0.02 0.03 0.05 0.07 0.09 0.13 0.17 0.15 0.13 0.11 0.12 0.19 0.34 0.59 0.83 1.12 1.28 1.02 0.91 0.79 0.48 0.18 0.08 0.06 0.05 0.04 0.03 0.04 0.05
0.00 0.00 0.00 0.00 0.00 0.00 0.00 0.00 0.00 0.00 0.00 0.00 0.00 0.00 0.00 0.00 0.01 0.02 0.05 0.08 0.14 0.17 0.15 0.15 0.14 0.14 0.20 0.35 0.57 0.88 1.42 1.36 1.15 1.05 0.93 0.55 0.21 0.09 0.05 0.04 0.04 0.04 0.05
0.00 0.00 0.00 0.00 0.00 0.00 0.00 0.00 0.00 0.00 0.00 0.00 0.00 0.00 0.00 0.00 0.00 0.00 0.01 0.03 0.06 0.13 0.17 0.17 0.18 0.16 0.16 0.20 0.35 0.62 1.20 1.53 1.46 1.37 1.27 1.03 0.60 0.26 0.11 0.06 0.05 0.04 0.05
0.00 0.00 0.00 0.00 0.00 0.00 0.00 0.00 0.00 0.00 0.00 0.00 0.00 0.00 0.00 0.00 0.00 0.00 0.00 0.01 0.02 0.04 0.11 0.15 0.18 0.18 0.15 0.14 0.16 0.30 0.65 1.06 1.30 1.39 1.40 1.40 1.14 0.63 0.29 0.15 0.09 0.07 0.06
0.00 0.00 0.00 0.00 0.00 0.00 0.00 0.00 0.00 0.00 0.00 0.01 0.02 0.01 0.00 0.00 0.00 0.00 0.00 0.00 0.01 0.01 0.03 0.08 0.14 0.19 0.18 0.16 0.14 0.14 0.25 0.53 0.82 1.02 1.15 1.28 1.45 1.19 0.63 0.31 0.18 0.12 0.09
0.00 0.00 0.00 0.00 0.00 0.00 0.00 0.00 0.00 0.01 0.01 0.01 0.04 0.06 0.02 0.00 0.00 0.00 0.00 0.00 0.00 0.01 0.02 0.04 0.08 0.14 0.19 0.19 0.13 0.10 0.12 0.26 0.51 0.75 0.90 1.05 1.29 1.48 1.16 0.60 0.32 0.21 0.15
0.00 0.00 0.00 0.00 0.00 0.00 0.00 0.00 0.01 0.02 0.03 0.01 0.03 0.12 0.15 0.08 0.02 0.00 0.00 0.01 0.01 0.01 0.01 0.02 0.04 0.07 0.13 0.20 0.18 0.12 0.08 0.11 0.26 0.48 0.70 0.86 1.09 1.36 1.43 1.07 0.58 0.30 0.19
0.00 0.00 0.00 0.00 0.00 0.00 0.01 0.01 0.01 0.02 0.04 0.05 0.03 0.05 0.11 0.14 0.14 0.06 0.02 0.02 0.03 0.03 0.02 0.02 0.02 0.04 0.07 0.13 0.19 0.18 0.12 0.09 0.13 0.27 0.45 0.64 0.88 1.14 1.39 1.29 0.95 0.54 0.30
0.00 0.00 0.00 0.00 0.00 0.00 0.01 0.01 0.01 0.02 0.04 0.07 0.08 0.07 0.06 0.06 0.08 0.12 0.06 0.02 0.04 0.04 0.04 0.03 0.03 0.03 0.05 0.09 0.14 0.18 0.19 0.16 0.20 0.24 0.34 0.51 0.77 0.96 1.33 1.45 1.19 0.76 0.44
0.01 0.01 0.00 0.00 0.00 0.01 0.01 0.01 0.02 0.03 0.03 0.05 0.07 0.09 0.11 0.12 0.09 0.11 0.10 0.04 0.02 0.02 0.04 0.04 0.05 0.07 0.08 0.09 0.11 0.18 0.21 0.22 0.29 0.30 0.28 0.42 0.67 0.88 1.16 1.42 1.29 0.89 0.57
0.02 0.01 0.00 0.00 0.00 0.01 0.01 0.02 0.03 0.03 0.03 0.05 0.06 0.07 0.08 0.09 0.09 0.10 0.12 0.07 0.04 0.02 0.01 0.03 0.04 0.07 0.10 0.12 0.14 0.17 0.19 0.21 0.25 0.28 0.24 0.27 0.43 0.67 0.99 1.32 1.46 1.18 0.77
0.02 0.01 0.00 0.00 0.00 0.01 0.02 0.02 0.03 0.03 0.03 0.04 0.04 0.05 0.07 0.06 0.07 0.10 0.12 0.12 0.10 0.04 0.02 0.02 0.02 0.04 0.08 0.13 0.13 0.13 0.12 0.17 0.20 0.21 0.22 0.22 0.28 0.44 0.67 1.01 1.45 1.68 1.36
0.01 0.00 0.00 0.00 0.01 0.01 0.02 0.03 0.03 0.03 0.03 0.04 0.05 0.06 0.08 0.07 0.08 0.08 0.09 0.12 0.16 0.12 0.04 0.01 0.02 0.03 0.07 0.12 0.13 0.11 0.10 0.12 0.15 0.14 0.15 0.17 0.22 0.31 0.45 0.67 0.98 1.50 1.81
0.00 0.00 0.00 0.01 0.02 0.03 0.04 0.04 0.04 0.04 0.05 0.05 0.08 0.09 0.10 0.11 0.13 0.14 0.15 0.13 0.13 0.14 0.09 0.02 0.02 0.04 0.08 0.15 0.16 0.13 0.12 0.13 0.12 0.12 0.11 0.10 0.14 0.21 0.32 0.47 0.65 0.94 1.38
0.00 0.00 0.01 0.02 0.05 0.06 0.06 0.07 0.06 0.07 0.08 0.08 0.10 0.13 0.15 0.18 0.24 0.26 0.28 0.25 0.19 0.16 0.13 0.04 0.01 0.04 0.12 0.19 0.19 0.14 0.14 0.13 0.10 0.11 0.11 0.09 0.09 0.14 0.23 0.34 0.43 0.57 0.87
0.00 0.00 0.02 0.04 0.08 0.10 0.09 0.11 0.12 0.11 0.14 0.14 0.16 0.19 0.22 0.24 0.28 0.33 0.39 0.39 0.31 0.23 0.19 0.10 0.03 0.04 0.11 0.22 0.25 0.20 0.17 0.15 0.10 0.10 0.11 0.10 0.10 0.12 0.17 0.24 0.31 0.39 0.55
0.00 0.00 0.02 0.06 0.14 0.19 0.16 0.14 0.18 0.19 0.17 0.17 0.20 0.26 0.30 0.32 0.29 0.34 0.43 0.45 0.40 0.32 0.27 0.19 0.09 0.05 0.09 0.21 0.30 0.28 0.24 0.22 0.17 0.13 0.12 0.11 0.11 0.12 0.14 0.17 0.22 0.28 0.34
0.00 0.01 0.01 0.05 0.16 0.27 0.24 0.26 0.32 0.26 0.19 0.14 0.14 0.19 0.30 0.42 0.45 0.46 0.44 0.41 0.43 0.40 0.34 0.27 0.17 0.10 0.09 0.18 0.31 0.36 0.31 0.29 0.25 0.20 0.16 0.13 0.12 0.12 0.12 0.12 0.11 0.16 0.26
0.00 0.00 0.01 0.02 0.12 0.36 0.46 0.60 0.57 0.28 0.13 0.10 0.10 0.15 0.27 0.46 0.55 0.64 0.63 0.49 0.44 0.45 0.44 0.39 0.31 0.21 0.15 0.19 0.28 0.37 0.42 0.38 0.36 0.29 0.20 0.14 0.12 0.09 0.09 0.12 0.15 0.14 0.18
0.00 0.00 0.00 0.01 0.06 0.33 0.56 0.71 0.47 0.16 0.09 0.11 0.13 0.16 0.24 0.44 0.52 0.54 0.60 0.54 0.50 0.53 0.53 0.49 0.44 0.36 0.27 0.23 0.27 0.36 0.47 0.51 0.46 0.41 0.29 0.19 0.15 0.11 0.07 0.07 0.11 0.12 0.13
0.00 0.00 0.00 0.00 0.02 0.17 0.45 0.60 0.34 0.09 0.09 0.12 0.14 0.14 0.19 0.32 0.37 0.37 0.39 0.36 0.38 0.46 0.56 0.58 0.56 0.50 0.42 0.34 0.34 0.39 0.44 0.52 0.51 0.57 0.49 0.35 0.23 0.14 0.09 0.10 0.13 0.12 0.12
0.00 0.00 0.00 0.00 0.00 0.08 0.36 0.51 0.25 0.06 0.08 0.12 0.15 0.13 0.09 0.17 0.25 0.23 0.24 0.29 0.35 0.43 0.57 0.64 0.68 0.63 0.52 0.46 0.45 0.51 0.54 0.50 0.54 0.69 0.65 0.59 0.48 0.27 0.18 0.15 0.16 0.13 0.12
0.00 0.00 0.00 0.00 0.00 0.02 0.24 0.50 0.25 0.04 0.06 0.10 0.14 0.12 0.07 0.06 0.13 0.10 0.10 0.19 0.22 0.32 0.43 0.52 0.51 0.47 0.42 0.47 0.57 0.65 0.70 0.63 0.63 0.81 0.77 0.68 0.73 0.59 0.46 0.36 0.29 0.21 0.15
0.00 0.00 0.00 0.00 0.00 0.00 0.11 0.42 0.33 0.04 0.04 0.06 0.09 0.09 0.10 0.07 0.07 0.05 0.04 0.08 0.14 0.21 0.25 0.29 0.31 0.30 0.31 0.36 0.50 0.70 0.91 0.85 0.75 0.86 0.93 0.78 0.81 0.69 0.72 0.70 0.47 0.30 0.21

GEFSMA_prec_meanprecacc_030.txt.gz
Total_Precipitation_Accumulation
0.00 0.00 0.00 0.00 0.01 0.01 0.02 0.03 0.05 0.08 0.09 0.09 0.11 0.11 0.12 0.11 0.09 0.10 0.09 0.10 0.10 0.09 0.09 0.16 0.30 0.60 0.88 0.94 0.99 0.91 0.80 0.74 0.60 0.45 0.41 0.47 0.48 0.40 0.26 0.18 0.13 0.09 0.06
0.00 0.00 0.00 0.00 0.00 0.00 0.00 0.00 0.01 0.02 0.02 0.03 0.04 0.05 0.07 0.08 0.08 0.11 0.12 0.14 0.13 0.11 0.10 0.11 0.17 0.34 0.65 0.87 1.01 1.18 1.03 0.90 0.84 0.65 0.46 0.42 0.42 0.42 0.36 0.23 0.15 0.12 0.08
0.00 0.00 0.00 0.00 0.00 0.00 0.00 0.00 0.00 0.00 0.00 0.01 0.01 0.01 0.02 0.03 0.05 0.07 0.09 0.13 0.17 0.15 0.13 0.11 0.12 0.19 0.34 0.60 0.85 1.16 1.35 1.12 1.03 0.98 0.75 0.49 0.39 0.37 0.38 0.33 0.22 0.17 0.12
0.00 0.00 0.00 0.00 0.00 0.00 0.00 0.00 0.00 0.00 0.00 0.00 0.00 0.00 0.00 0.00 0.01 0.02 0.05 0.08 0.14 0.17 0.15 0.15 0.14 0.14 0.20 0.35 0.58 0.90 1.47 1.45 1.27 1.21 1.17 0.86 0.54 0.40 0.34 0.33 0.29 0.21 0.18
0.00 0.00 0.00 0.00 0.00 0.00 0.00 0.00 0.00 0.00 0.00 0.00 0.00 0.00 0.00 0.00 0.00 0.00 0.01 0.03 0.06 0.13 0.17 0.17 0.18 0.16 0.16 0.20 0.35 0.64 1.24 1.59 1.59 1.53 1.49 1.33 0.93 0.58 0.40 0.33 0.31 0.27 0.21
0.00 0.00 0.00 0.00 0.00 0.00 0.00 0.00 0.00 0.00 0.00 0.00 0.00 0.00 0.00 0.00 0.00 0.00 0.00 0.01 0.02 0.04 0.11 0.15 0.18 0.18 0.15 0.14 0.17 0.31 0.68 1.13 1.41 1.57 1.61 1.67 1.48 0.97 0.58 0.40 0.31 0.31 0.25
0.00 0.00 0.00 0.00 0.00 0.00 0.00 0.00 0.00 0.00 0.00 0.01 0.02 0.01 0.00 0.00 0.00 0.00 0.00 0.00 0.01 0.01 0.03 0.08 0.14 0.19 0.18 0.16 0.14 0.14 0.27 0.59 0.95 1.21 1.36 1.53 1.76 1.54 0.97 0.59 0.40 0.33 0.31
0.00 0.00 0.00 0.00 0.00 0.00 0.00 0.00 0.00 0.01 0.01 0.01 0.04 0.07 0.02 0.00 0.00 0.00 0.00 0.00 0.00 0.01 0.02 0.04 0.08 0.14 0.19 0.19 0.13 0.11 0.13 0.28 0.61 0.96 1.17 1.31 1.55 1.80 1.52 0.95 0.60 0.44 0.38
0.00 0.00 0.00 0.00 0.00 0.00 0.00 0.00 0.01 0.02 0.03 0.01 0.03 0.13 0.17 0.09 0.03 0.00 0.00 0.01 0.01 0.01 0.01 0.02 0.04 0.07 0.13 0.20 0.18 0.12 0.08 0.12 0.31 0.62 1.02 1.25 1.40 1.65 1.76 1.42 0.91 0.59 0.45
0.00 0.00 0.00 0.00 0.00 0.00 0.01 0.01 0.01 0.02 0.05 0.06 0.03 0.06 0.13 0.17 0.17 0.07 0.02 0.02 0.03 0.03 0.02 0.02 0.02 0.04 0.07 0.13 0.19 0.19 0.13 0.10 0.15 0.35 0.68 1.14 1.43 1.57 1.81 1.68 1.29 0.84 0.58
0.00 0.00 0.00 0.00 0.00 0.00 0.01 0.01 0.01 0.02 0.05 0.08 0.09 0.08 0.07 0.07 0.10 0.15 0.07 0.02 0.04 0.04 0.04 0.03 0.03 0.03 0.05 0.09 0.14 0.18 0.20 0.18 0.21 0.28 0.47 0.85 1.46 1.67 1.93 2.01 1.62 1.09 0.73
0.01 0.01 0.00 0.00 0.00 0.01 0.01 0.02 0.02 0.03 0.04 0.06 0.08 0.10 0.12 0.13 0.10 0.13 0.12 0.05 0.02 0.02 0.04 0.04 0.05 0.07 0.08 0.09 0.11 0.19 0.22 0.23 0.31 0.33 0.34 0.58 1.09 1.68 1.99 2.18 1.94 1.36 0.89
0.02 0.01 0.00 0.00 0.00 0.01 0.02 0.02 0.04 0.04 0.04 0.06 0.08 0.09 0.10 0.10 0.10 0.13 0.15 0.09 0.04 0.02 0.01 0.03 0.04 0.07 0.10 0.12 0.14 0.18 0.19 0.22 0.27 0.30 0.28 0.34 0.62 1.16 1.78 2.20 2.33 1.92 1.29
0.02 0.01 0.00 0.00 0.01 0.01 0.02 0.04 0.05 0.05 0.06 0.07 0.07 0.09 0.11 0.09 0.10 0.13 0.16 0.17 0.13 0.05 0.02 0.02 0.02 0.04 0.08 0.13 0.13 0.13 0.12 0.18 0.22 0.24 0.25 0.26 0.37 0.67 1.17 1.75 2.37 2.66 2.20
0.01 0.00 0.00 0.00 0.01 0.02 0.04 0.05 0.06 0.06 0.08 0.10 0.11 0.12 0.15 0.12 0.12 0.12 0.14 0.18 0.23 0.16 0.05 0.01 0.02 0.03 0.07 0.12 0.13 0.11 0.10 0.12 0.16 0.17 0.19 0.21 0.27 0.42 0.70 1.14 1.64 2.40 2.85
0.00 0.00 0.00 0.01 0.03 0.04 0.05 0.06 0.08 0.08 0.11 0.13 0.17 0.18 0.18 0.18 0.19 0.19 0.19 0.17 0.19 0.21 0.12 0.02 0.02 0.04 0.08 0.15 0.17 0.13 0.12 0.13 0.13 0.14 0.14 0.15 0.18 0.27 0.45 0.73 1.08 1.55 2.26
0.00 0.00 0.01 0.03 0.06 0.07 0.07 0.09 0.09 0.11 0.14 0.15 0.17 0.21 0.22 0.24 0.29 0.30 0.32 0.29 0.23 0.22 0.18 0.05 0.01 0.04 0.12 0.19 0.19 0.14 0.14 0.13 0.11 0.13 0.14 0.14 0.15 0.19 0.31 0.48 0.68 0.96 1.43
0.00 0.00 0.02 0.05 0.09 0.10 0.10 0.12 0.13 0.14 0.17 0.18 0.20 0.23 0.26 0.28 0.32 0.36 0.42 0.42 0.34 0.27 0.23 0.12 0.04 0.04 0.11 0.22 0.25 0.20 0.17 0.15 0.11 0.11 0.14 0.15 0.17 0.19 0.24 0.33 0.45 0.63 0.90
0.00 0.00 0.02 0.07 0.14 0.20 0.18 0.15 0.18 0.19 0.18 0.19 0.21 0.27 0.31 0.34 0.33 0.37 0.46 0.49 0.42 0.34 0.29 0.21 0.10 0.05 0.09 0.21 0.31 0.28 0.24 0.23 0.17 0.14 0.14 0.15 0.18 0.21 0.23 0.26 0.32 0.42 0.55
0.00 0.01 0.01 0.05 0.16 0.29 0.31 0.31 0.33 0.26 0.19 0.14 0.14 0.19 0.31 0.44 0.49 0.51 0.48 0.45 0.45 0.42 0.37 0.30 0.20 0.12 0.11 0.20 0.32 0.37 0.33 0.29 0.25 0.21 0.18 0.16 0.18 0.21 0.22 0.21 0.18 0.23 0.38
0.00 0.00 0.01 0.02 0.12 0.38 0.63 0.76 0.60 0.29 0.13 0.10 0.10 0.15 0.27 0.47 0.60 0.71 0.68 0.55 0.49 0.49 0.48 0.43 0.35 0.27 0.21 0.24 0.31 0.38 0.43 0.40 0.38 0.31 0.22 0.18 0.18 0.17 0.18 0.21 0.22 0.20 0.25
0.00 0.00 0.00 0.01 0.06 0.35 0.71 0.89 0.52 0.16 0.09 0.11 0.13 0.16 0.24 0.44 0.55 0.59 0.63 0.59 0.58 0.62 0.62 0.56 0.51 0.44 0.35 0.30 0.31 0.38 0.48 0.53 0.49 0.43 0.31 0.23 0.22 0.20 0.17 0.16 0.19 0.18 0.18
0.00 0.00 0.00 0.00 0.02 0.18 0.54 0.75 0.40 0.10 0.09 0.12 0.14 0.14 0.19 0.32 0.42 0.46 0.41 0.38 0.42 0.52 0.65 0.67 0.64 0.58 0.49 0.40 0.38 0.41 0.46 0.54 0.54 0.61 0.51 0.41 0.31 0.26 0.21 0.22 0.22 0.18 0.17
0.00 0.00 0.00 0.00 0.00 0.08 0.40 0.64 0.33 0.07 0.08 0.12 0.15 0.13 0.10 0.18 0.30 0.33 0.26 0.31 0.39 0.49 0.64 0.72 0.76 0.70 0.58 0.51 0.49 0.53 0.55 0.51 0.56 0.73 0.69 0.64 0.57 0.39 0.31 0.27 0.26 0.20 0.17
0.00 0.00 0.00 0.00 0.00 0.02 0.26 0.59 0.35 0.07 0.07 0.10 0.14 0.12 0.07 0.08 0.17 0.15 0.11 0.20 0.26 0.36 0.48 0.58 0.57 0.51 0.45 0.50 0.60 0.66 0.71 0.64 0.66 0.85 0.83 0.74 0.83 0.72 0.61 0.49 0.39 0.29 0.21
0.00 0.00 0.00 0.00 0.00 0.00 0.12 0.47 0.44 0.10 0.06 0.07 0.09 0.09 0.10 0.10 0.09 0.08 0.06 0.10 0.19 0.25 0.29 0.32 0.34 0.32 0.32 0.38 0.52 0.73 0.93 0.87 0.77 0.91 1.01 0.86 0.93 0.86 0.93 0.88 0.60 0.38 0.28

GEFSMA_prec_meanprecacc_036.txt.gz
Total_Precipitation_Accumulation
0.00 0.00 0.00 0.00 0.01 0.01 0.02 0.03 0.05 0.08 0.09 0.09 0.11 0.11 0.12 0.11 0.09 0.10 0.09 0.10 0.10 0.09 0.09 0.16 0.30 0.60 0.88 0.94 0.99 0.91 0.80 0.74 0.61 0.48 0.46 0.59 0.68 0.66 0.59 0.58 0.44 0.27 0.20
0.00 0.00 0.00 0.00 0.00 0.00 0.00 0.00 0.01 0.02 0.02 0.03 0.04 0.05 0.07 0.08 0.08 0.11 0.12 0.14 0.13 0.11 0.10 0.11 0.17 0.34 0.65 0.87 1.01 1.19 1.04 0.90 0.85 0.67 0.50 0.49 0.59 0.64 0.64 0.59 0.55 0.40 0.24
0.00 0.00 0.00 0.00 0.00 0.00 0.00 0.00 0.00 0.00 0.00 0.01 0.01 0.01 0.02 0.03 0.05 0.07 0.09 0.13 0.17 0.15 0.13 0.11 0.12 0.19 0.34 0.60 0.85 1.16 1.35 1.13 1.05 1.00 0.78 0.53 0.51 0.57 0.62 0.64 0.61 0.56 0.38
0.00 0.00 0.00 0.00 0.00 0.00 0.00 0.00 0.00 0.00 0.00 0.00 0.00 0.00 0.00 0.00 0.01 0.02 0.05 0.08 0.14 0.17 0.15 0.15 0.14 0.14 0.20 0.35 0.58 0.91 1.48 1.46 1.28 1.22 1.19 0.89 0.61 0.55 0.55 0.61 0.64 0.59 0.55
0.00 0.00 0.00 0.00 0.00 0.00 0.00 0.00 0.00 0.00 0.00 0.00 0.00 0.00 0.00 0.00 0.00 0.00 0.01 0.03 0.06 0.13 0.17 0.17 0.18 0.16 0.16 0.20 0.35 0.64 1.25 1.60 1.60 1.55 1.51 1.36 0.98 0.69 0.59 0.58 0.63 0.63 0.58
0.00 0.00 0.00 0.00 0.00 0.00 0.00 0.00 0.00 0.00 0.00 0.00 0.00 0.00 0.00 0.00 0.00 0.00 0.00 0.01 0.02 0.04 0.11 0.15 0.18 0.18 0.15 0.14 0.17 0.31 0.69 1.14 1.42 1.58 1.63 1.70 1.52 1.05 0.74 0.62 0.60 0.66 0.61
0.00 0.00 0.00 0.00 0.00 0.00 0.00 0.00 0.00 0.00 0.00 0.01 0.02 0.01 0.00 0.00 0.00 0.00 0.00 0.00 0.01 0.01 0.04 0.08 0.14 0.19 0.18 0.16 0.14 0.14 0.27 0.59 0.95 1.22 1.38 1.57 1.80 1.60 1.10 0.78 0.66 0.66 0.68
0.00 0.00 0.00 0.00 0.00 0.00 0.00 0.00 0.00 0.01 0.01 0.01 0.05 0.08 0.03 0.00 0.00 0.00 0.00 0.00 0.00 0.01 0.02 0.04 0.08 0.14 0.19 0.19 0.13 0.11 0.13 0.28 0.61 0.97 1.19 1.34 1.59 1.85 1.62 1.11 0.83 0.74 0.73
0.00 0.00 0.00 0.00 0.00 0.00 0.00 0.00 0.01 0.02 0.03 0.02 0.04 0.15 0.21 0.12 0.04 0.00 0.00 0.01 0.01 0.01 0.01 0.02 0.04 0.07 0.13 0.20 0.18 0.12 0.08 0.12 0.31 0.63 1.03 1.28 1.44 1.70 1.84 1.56 1.11 0.84 0.78
0.00 0.00 0.00 0.00 0.00 0.00 0.01 0.01 0.01 0.02 0.06 0.07 0.05 0.07 0.16 0.20 0.20 0.09 0.02 0.02 0.03 0.03 0.02 0.02 0.02 0.04 0.07 0.13 0.19 0.19 0.13 0.10 0.15 0.36 0.69 1.16 1.47 1.63 1.90 1.81 1.48 1.06 0.86
0.00 0.00 0.00 0.00 0.00 0.00 0.01 0.01 0.02 0.03 0.06 0.10 0.11 0.10 0.09 0.09 0.13 0.19 0.09 0.03 0.04 0.04 0.04 0.03 0.03 0.03 0.05 0.09 0.14 0.18 0.20 0.18 0.22 0.29 0.48 0.87 1.50 1.73 2.03 2.17 1.82 1.32 0.99
0.01 0.01 0.00 0.00 0.00 0.01 0.01 0.02 0.03 0.04 0.06 0.08 0.11 0.13 0.16 0.18 0.14 0.18 0.16 0.06 0.03 0.03 0.04 0.04 0.05 0.07 0.08 0.09 0.11 0.19 0.22 0.23 0.31 0.33 0.35 0.59 1.11 1.71 2.05 2.30 2.12 1.60 1.16
0.02 0.01 0.00 0.00 0.00 0.01 0.02 0.03 0.05 0.05 0.06 0.09 0.10 0.12 0.14 0.15 0.16 0.20 0.22 0.13 0.06 0.02 0.02 0.03 0.04 0.07 0.10 0.12 0.14 0.18 0.19 0.22 0.27 0.30 0.28 0.35 0.63 1.18 1.81 2.26 2.44 2.11 1.56
0.02 0.01 0.00 0.00 0.01 0.01 0.02 0.04 0.05 0.06 0.08 0.09 0.10 0.12 0.16 0.13 0.16 0.22 0.26 0.27 0.19 0.07 0.02 0.02 0.02 0.04 0.09 0.13 0.13 0.14 0.12 0.18 0.22 0.24 0.25 0.27 0.38 0.67 1.19 1.78 2.45 2.81 2.44
0.01 0.00 0.00 0.00 0.01 0.02 0.04 0.05 0.07 0.08 0.09 0.11 0.14 0.16 0.19 0.16 0.17 0.19 0.23 0.29 0.37 0.25 0.07 0.02 0.02 0.03 0.08 0.13 0.13 0.12 0.10 0.12 0.16 0.17 0.19 0.22 0.27 0.43 0.71 1.16 1.68 2.51 3.04
0.00 0.00 0.00 0.01 0.03 0.04 0.05 0.07 0.08 0.09 0.12 0.14 0.18 0.20 0.20 0.21 0.23 0.25 0.26 0.25 0.29 0.32 0.18 0.03 0.02 0.04 0.09 0.16 0.17 0.13 0.12 0.13 0.14 0.14 0.14 0.15 0.18 0.27 0.46 0.75 1.11 1.62 2.43
0.00 0.00 0.01 0.03 0.06 0.07 0.07 0.09 0.10 0.11 0.14 0.15 0.17 0.22 0.23 0.25 0.31 0.33 0.36 0.33 0.28 0.28 0.24 0.06 0.02 0.04 0.12 0.20 0.19 0.14 0.14 0.13 0.11 0.13 0.14 0.15 0.15 0.20 0.31 0.50 0.71 1.02 1.57
0.00 0.00 0.02 0.05 0.09 0.10 0.10 0.13 0.14 0.14 0.17 0.18 0.20 0.23 0.26 0.28 0.32 0.38 0.45 0.45 0.37 0.31 0.28 0.15 0.04 0.04 0.12 0.22 0.26 0.20 0.17 0.15 0.11 0.12 0.14 0.15 0.17 0.19 0.25 0.35 0.50 0.70 1.01
0.00 0.00 0.02 0.07 0.14 0.20 0.18 0.15 0.19 0.20 0.18 0.19 0.21 0.27 0.32 0.34 0.33 0.38 0.48 0.52 0.45 0.36 0.31 0.23 0.11 0.06 0.10 0.22 0.31 0.29 0.25 0.23 0.17 0.14 0.15 0.15 0.18 0.21 0.24 0.27 0.37 0.50 0.66
0.00 0.01 0.01 0.05 0.16 0.29 0.32 0.33 0.36 0.28 0.20 0.15 0.14 0.19 0.31 0.45 0.50 0.54 0.52 0.50 0.49 0.44 0.38 0.32 0.21 0.13 0.12 0.21 0.34 0.38 0.34 0.30 0.26 0.21 0.18 0.17 0.19 0.22 0.23 0.22 0.23 0.32 0.48
0.00 0.00 0.01 0.02 0.12 0.38 0.63 0.80 0.69 0.35 0.16 0.12 0.11 0.16 0.28 0.48 0.61 0.75 0.76 0.63 0.56 0.54 0.50 0.45 0.37 0.28 0.22 0.26 0.34 0.41 0.45 0.41 0.38 0.32 0.23 0.19 0.19 0.18 0.19 0.23 0.26 0.29 0.36
0.00 0.00 0.00 0.01 0.06 0.35 0.71 0.94 0.62 0.24 0.13 0.14 0.16 0.17 0.25 0.44 0.56 0.62 0.69 0.66 0.64 0.68 0.68 0.61 0.54 0.46 0.37 0.32 0.34 0.41 0.51 0.55 0.50 0.45 0.33 0.25 0.24 0.22 0.19 0.18 0.23 0.25 0.29
0.00 0.00 0.00 0.00 0.02 0.18 0.54 0.80 0.49 0.16 0.13 0.15 0.16 0.15 0.19 0.32 0.42 0.49 0.47 0.41 0.43 0.56 0.72 0.74 0.69 0.61 0.52 0.42 0.42 0.43 0.48 0.56 0.56 0.62 0.53 0.43 0.34 0.29 0.24 0.26 0.28 0.25 0.27
0.00 0.00 0.00 0.00 0.00 0.08 0.41 0.68 0.42 0.13 0.12 0.14 0.16 0.13 0.10 0.18 0.31 0.41 0.31 0.32 0.40 0.51 0.69 0.77 0.82 0.75 0.62 0.55 0.53 0.56 0.57 0.53 0.57 0.75 0.71 0.67 0.61 0.44 0.36 0.33 0.32 0.27 0.26
0.00 0.00 0.00 0.00 0.00 0.02 0.26 0.63 0.44 0.13 0.10 0.11 0.14 0.13 0.08 0.09 0.20 0.20 0.14 0.22 0.28 0.39 0.51 0.62 0.62 0.56 0.50 0.55 0.64 0.70 0.74 0.67 0.69 0.92 0.90 0.78 0.88 0.79 0.69 0.57 0.48 0.38 0.30
0.00 0.00 0.00 0.00 0.00 0.01 0.13 0.52 0.53 0.16 0.08 0.08 0.10 0.09 0.11 0.11 0.12 0.10 0.08 0.13 0.24 0.30 0.31 0.34 0.36 0.34 0.34 0.40 0.56 0.77 0.96 0.91 0.84 1.01 1.11 0.91 0.99 0.94 1.04 0.99 0.71 0.49 0.38

GEFSMA_prec_meanprecacc_042.txt.gz
Total_Precipitation_Accumulation
0.00 0.00 0.00 0.00 0.01 0.01 0.02 0.03 0.05 0.08 0.09 0.09 0.11 0.11 0.12 0.11 0.09 0.10 0.09 0.10 0.10 0.09 0.09 0.16 0.31 0.61 0.90 0.95 1.01 0.92 0.81 0.75 0.62 0.48 0.47 0.60 0.69 0.68 0.63 0.68 0.61 0.44 0.34
0.00 0.00 0.00 0.00 0.00 0.00 0.00 0.00 0.01 0.02 0.02 0.03 0.04 0.05 0.07 0.08 0.08 0.11 0.12 0.14 0.13 0.11 0.10 0.11 0.18 0.35 0.66 0.89 1.03 1.20 1.05 0.91 0.86 0.68 0.50 0.50 0.60 0.65 0.66 0.65 0.69 0.60 0.42
0.00 0.00 0.00 0.00 0.00 0.00 0.00 0.00 0.00 0.00 0.00 0.01 0.01 0.01 0.02 0.03 0.05 0.07 0.09 0.13 0.17 0.15 0.13 0.11 0.12 0.19 0.36 0.61 0.87 1.18 1.37 1.14 1.06 1.01 0.78 0.54 0.52 0.58 0.63 0.68 0.70 0.75 0.60
0.00 0.00 0.00 0.00 0.00 0.00 0.00 0.00 0.00 0.00 0.00 0.00 0.00 0.00 0.00 0.00 0.01 0.02 0.05 0.08 0.14 0.17 0.15 0.15 0.14 0.14 0.21 0.37 0.60 0.94 1.50 1.48 1.31 1.24 1.20 0.90 0.62 0.57 0.57 0.63 0.70 0.74 0.79
0.00 0.00 0.00 0.00 0.00 0.00 0.00 0.00 0.00 0.00 0.00 0.00 0.00 0.00 0.00 0.00 0.00 0.00 0.01 0.03 0.06 0.13 0.17 0.17 0.18 0.16 0.17 0.22 0.38 0.67 1.28 1.64 1.63 1.58 1.53 1.37 0.99 0.71 0.61 0.60 0.67 0.73 0.79
0.00 0.00 0.00 0.00 0.00 0.00 0.00 0.00 0.00 0.00 0.00 0.00 0.00 0.00 0.00 0.00 0.00 0.00 0.00 0.01 0.02 0.04 0.11 0.15 0.18 0.18 0.16 0.15 0.19 0.34 0.73 1.18 1.46 1.62 1.66 1.72 1.53 1.06 0.75 0.64 0.64 0.73 0.78
0.00 0.00 0.00 0.00 0.00 0.00 0.00 0.00 0.00 0.00 0.00 0.01 0.02 0.01 0.00 0.00 0.00 0.00 0.00 0.00 0.01 0.01 0.04 0.08 0.15 0.20 0.19 0.17 0.15 0.16 0.30 0.64 1.01 1.27 1.42 1.59 1.82 1.61 1.11 0.81 0.69 0.71 0.80
0.00 0.00 0.00 0.00 0.00 0.00 0.00 0.00 0.00 0.01 0.01 0.01 0.05 0.09 0.05 0.01 0.00 0.00 0.00 0.00 0.00 0.01 0.02 0.04 0.08 0.15 0.20 0.19 0.13 0.11 0.14 0.31 0.65 1.02 1.23 1.37 1.62 1.87 1.64 1.13 0.85 0.78 0.82
0.00 0.00 0.00 0.00 0.00 0.00 0.00 0.00 0.01 0.02 0.03 0.02 0.04 0.18 0.28 0.16 0.05 0.01 0.00 0.01 0.01 0.01 0.01 0.02 0.05 0.08 0.14 0.20 0.18 0.12 0.09 0.13 0.32 0.65 1.06 1.31 1.47 1.72 1.85 1.58 1.13 0.88 0.85
0.00 0.00 0.00 0.00 0.00 0.00 0.01 0.01 0.01 0.02 0.06 0.08 0.05 0.08 0.18 0.24 0.27 0.13 0.02 0.02 0.03 0.03 0.02 0.02 0.03 0.04 0.08 0.14 0.20 0.19 0.13 0.10 0.15 0.36 0.70 1.18 1.50 1.66 1.92 1.83 1.50 1.10 0.91
0.00 0.00 0.00 0.00 0.00 0.00 0.01 0.01 0.02 0.03 0.06 0.11 0.12 0.11 0.09 0.09 0.15 0.24 0.11 0.03 0.04 0.04 0.04 0.03 0.03 0.04 0.05 0.09 0.14 0.19 0.21 0.18 0.22 0.29 0.49 0.89 1.52 1.76 2.06 2.20 1.86 1.36 1.03
0.01 0.01 0.00 0.00 0.00 0.01 0.01 0.02 0.03 0.04 0.06 0.08 0.11 0.13 0.17 0.19 0.16 0.21 0.20 0.07 0.03 0.03 0.04 0.04 0.05 0.07 0.08 0.10 0.11 0.20 0.24 0.26 0.33 0.36 0.37 0.62 1.14 1.74 2.09 2.33 2.16 1.64 1.21
0.02 0.01 0.00 0.00 0.00 0.01 0.02 0.03 0.05 0.05 0.06 0.09 0.11 0.12 0.14 0.16 0.16 0.22 0.26 0.15 0.07 0.02 0.02 0.03 0.05 0.08 0.11 0.13 0.14 0.19 0.22 0.25 0.30 0.33 0.31 0.37 0.65 1.19 1.83 2.29 2.48 2.15 1.60
0.02 0.01 0.00 0.00 0.01 0.01 0.02 0.04 0.05 0.06 0.08 0.09 0.10 0.12 0.16 0.13 0.16 0.22 0.28 0.31 0.23 0.08 0.02 0.02 0.02 0.04 0.09 0.13 0.14 0.15 0.14 0.19 0.24 0.27 0.28 0.29 0.40 0.69 1.20 1.80 2.46 2.83 2.47
0.01 0.00 0.00 0.00 0.01 0.02 0.04 0.05 0.07 0.08 0.09 0.11 0.14 0.16 0.19 0.16 0.17 0.20 0.23 0.32 0.43 0.31 0.08 0.02 0.02 0.03 0.08 0.13 0.13 0.12 0.10 0.13 0.17 0.19 0.20 0.23 0.28 0.44 0.72 1.17 1.69 2.53 3.05
0.00 0.00 0.00 0.01 0.03 0.04 0.05 0.07 0.08 0.09 0.12 0.14 0.18 0.20 0.20 0.21 0.23 0.25 0.26 0.25 0.31 0.37 0.22 0.03 0.02 0.04 0.09 0.16 0.17 0.13 0.12 0.13 0.14 0.15 0.15 0.16 0.19 0.28 0.46 0.75 1.12 1.63 2.44
0.00 0.00 0.01 0.03 0.06 0.07 0.07 0.09 0.10 0.11 0.14 0.15 0.17 0.22 0.23 0.25 0.31 0.33 0.36 0.34 0.29 0.30 0.28 0.07 0.02 0.04 0.12 0.20 0.19 0.14 0.14 0.13 0.11 0.13 0.14 0.15 0.15 0.20 0.32 0.50 0.72 1.02 1.58
0.00 0.00 0.02 0.05 0.09 0.10 0.10 0.13 0.14 0.14 0.17 0.19 0.20 0.24 0.27 0.29 0.34 0.38 0.45 0.45 0.38 0.32 0.32 0.18 0.05 0.04 0.12 0.22 0.26 0.20 0.17 0.15 0.11 0.12 0.14 0.15 0.17 0.20 0.25 0.35 0.50 0.70 1.02
0.00 0.00 0.02 0.07 0.14 0.20 0.18 0.15 0.19 0.20 0.19 0.21 0.24 0.29 0.34 0.37 0.35 0.39 0.48 0.52 0.46 0.38 0.35 0.28 0.12 0.06 0.10 0.22 0.31 0.29 0.25 0.23 0.17 0.14 0.15 0.16 0.18 0.22 0.25 0.28 0.38 0.51 0.67
0.00 0.01 0.01 0.05 0.16 0.29 0.32 0.33 0.36 0.31 0.25 0.20 0.18 0.22 0.33 0.47 0.51 0.54 0.54 0.52 0.53 0.50 0.44 0.36 0.23 0.14 0.12 0.21 0.34 0.38 0.34 0.30 0.26 0.21 0.18 0.17 0.19 0.22 0.23 0.23 0.23 0.32 0.49
0.00 0.00 0.01 0.02 0.12 0.38 0.63 0.81 0.73 0.46 0.29 0.20 0.15 0.17 0.29 0.49 0.64 0.79 0.80 0.69 0.64 0.64 0.56 0.48 0.39 0.29 0.23 0.26 0.34 0.41 0.45 0.41 0.38 0.32 0.23 0.19 0.19 0.19 0.19 0.24 0.27 0.29 0.37
0.00 0.00 0.00 0.01 0.06 0.35 0.71 0.95 0.68 0.35 0.23 0.18 0.18 0.18 0.26 0.45 0.57 0.63 0.71 0.71 0.72 0.75 0.74 0.66 0.58 0.48 0.37 0.32 0.34 0.41 0.51 0.56 0.51 0.45 0.33 0.25 0.25 0.22 0.19 0.18 0.23 0.26 0.30
0.00 0.00 0.00 0.00 0.02 0.18 0.55 0.81 0.55 0.25 0.17 0.16 0.17 0.16 0.20 0.32 0.43 0.50 0.51 0.47 0.46 0.58 0.75 0.81 0.74 0.62 0.53 0.43 0.43 0.44 0.49 0.57 0.56 0.62 0.54 0.43 0.34 0.29 0.25 0.26 0.29 0.25 0.28
0.00 0.00 0.00 0.00 0.00 0.08 0.41 0.69 0.48 0.20 0.13 0.14 0.16 0.14 0.10 0.19 0.32 0.44 0.43 0.37 0.41 0.52 0.71 0.82 0.88 0.80 0.66 0.58 0.57 0.60 0.59 0.54 0.57 0.76 0.72 0.68 0.61 0.44 0.37 0.34 0.33 0.27 0.27
0.00 0.00 0.00 0.00 0.00 0.02 0.27 0.64 0.50 0.18 0.11 0.12 0.14 0.13 0.08 0.09 0.22 0.28 0.20 0.23 0.28 0.41 0.53 0.65 0.66 0.61 0.54 0.59 0.70 0.77 0.77 0.68 0.70 0.92 0.92 0.80 0.89 0.80 0.71 0.59 0.49 0.39 0.31
0.00 0.00 0.00 0.00 0.00 0.01 0.13 0.53 0.58 0.21 0.11 0.09 0.10 0.09 0.11 0.12 0.16 0.15 0.09 0.14 0.28 0.35 0.33 0.35 0.37 0.35 0.35 0.41 0.57 0.80 0.98 0.93 0.86 1.03 1.14 0.94 1.01 0.98 1.09 1.03 0.73 0.51 0.39

GEFSMA_prec_meanprecacc_048.txt.gz
Total_Precipitation_Accumulation
0.00 0.00 0.00 0.00 0.01 0.01 0.02 0.03 0.05 0.08 0.09 0.09 0.11 0.11 0.12 0.11 0.09 0.10 0.09 0.10 0.10 0.09 0.09 0.16 0.32 0.63 0.92 0.99 1.05 0.96 0.85 0.79 0.66 0.52 0.50 0.62 0.71 0.69 0.64 0.69 0.63 0.47 0.40
0.00 0.00 0.00 0.00 0.00 0.00 0.00 0.00 0.01 0.02 0.02 0.03 0.04 0.05 0.07 0.08 0.08 0.11 0.12 0.14 0.13 0.11 0.10 0.11 0.18 0.37 0.69 0.93 1.08 1.25 1.10 0.97 0.91 0.73 0.54 0.53 0.62 0.67 0.67 0.67 0.71 0.62 0.47
0.00 0.00 0.00 0.00 0.00 0.00 0.00 0.00 0.00 0.00 0.00 0.01 0.01 0.01 0.02 0.03 0.05 0.07 0.09 0.13 0.17 0.15 0.13 0.11 0.12 0.20 0.38 0.65 0.92 1.24 1.42 1.20 1.12 1.06 0.83 0.58 0.55 0.60 0.65 0.69 0.72 0.77 0.65
0.00 0.00 0.00 0.00 0.00 0.00 0.00 0.00 0.00 0.00 0.00 0.00 0.00 0.00 0.00 0.00 0.01 0.02 0.05 0.08 0.14 0.17 0.15 0.15 0.14 0.15 0.23 0.40 0.65 0.99 1.56 1.55 1.37 1.30 1.26 0.95 0.67 0.60 0.60 0.65 0.72 0.76 0.83
0.00 0.00 0.00 0.00 0.00 0.00 0.00 0.00 0.00 0.00 0.00 0.00 0.00 0.00 0.00 0.00 0.00 0.00 0.01 0.03 0.06 0.13 0.17 0.17 0.18 0.17 0.17 0.23 0.41 0.72 1.34 1.71 1.71 1.65 1.61 1.44 1.05 0.75 0.65 0.63 0.70 0.75 0.83
0.00 0.00 0.00 0.00 0.00 0.00 0.00 0.00 0.00 0.00 0.00 0.00 0.00 0.00 0.00 0.00 0.00 0.00 0.00 0.01 0.02 0.04 0.11 0.15 0.18 0.18 0.16 0.16 0.22 0.39 0.79 1.26 1.55 1.71 1.75 1.81 1.61 1.13 0.80 0.68 0.67 0.76 0.81
0.00 0.00 0.00 0.00 0.00 0.00 0.00 0.00 0.00 0.00 0.00 0.01 0.02 0.01 0.00 0.00 0.00 0.00 0.00 0.00 0.01 0.01 0.04 0.08 0.15 0.20 0.19 0.17 0.16 0.19 0.36 0.72 1.10 1.37 1.53 1.70 1.92 1.70 1.18 0.86 0.73 0.74 0.84
0.00 0.00 0.00 0.00 0.00 0.00 0.00 0.00 0.00 0.01 0.01 0.01 0.05 0.09 0.05 0.01 0.00 0.00 0.00 0.00 0.00 0.01 0.02 0.04 0.08 0.15 0.20 0.20 0.14 0.13 0.17 0.36 0.73 1.12 1.36 1.51 1.75 1.98 1.73 1.20 0.91 0.82 0.86
0.00 0.00 0.00 0.00 0.00 0.00 0.00 0.00 0.01 0.02 0.03 0.02 0.04 0.18 0.28 0.16 0.05 0.01 0.00 0.01 0.01 0.01 0.01 0.02 0.05 0.08 0.14 0.21 0.19 0.13 0.11 0.17 0.38 0.74 1.18 1.45 1.62 1.86 1.98 1.68 1.21 0.93 0.90
0.00 0.00 0.00 0.00 0.00 0.00 0.01 0.01 0.01 0.02 0.06 0.08 0.05 0.08 0.18 0.25 0.28 0.13 0.02 0.02 0.03 0.03 0.02 0.02 0.03 0.05 0.08 0.15 0.21 0.21 0.16 0.15 0.23 0.45 0.82 1.33 1.67 1.82 2.07 1.96 1.60 1.16 0.96
0.00 0.00 0.00 0.00 0.00 0.00 0.01 0.01 0.02 0.03 0.06 0.11 0.12 0.11 0.09 0.09 0.15 0.25 0.11 0.03 0.04 0.04 0.04 0.03 0.03 0.04 0.05 0.10 0.15 0.20 0.24 0.25 0.31 0.40 0.60 1.02 1.68 1.94 2.25 2.37 1.99 1.45 1.10
0.01 0.01 0.00 0.00 0.00 0.01 0.01 0.02 0.03 0.04 0.06 0.08 0.11 0.13 0.17 0.19 0.16 0.21 0.20 0.07 0.03 0.03 0.04 0.04 0.05 0.07 0.09 0.10 0.12 0.21 0.28 0.32 0.41 0.45 0.46 0.72 1.25 1.88 2.26 2.51 2.32 1.77 1.30
0.02 0.01 0.00 0.00 0.00 0.01 0.02 0.03 0.05 0.05 0.06 0.09 0.11 0.12 0.14 0.16 0.16 0.22 0.26 0.15 0.07 0.02 0.02 0.03 0.05 0.08 0.11 0.13 0.14 0.19 0.24 0.29 0.35 0.39 0.38 0.45 0.73 1.28 1.93 2.41 2.62 2.29 1.71
0.02 0.01 0.00 0.00 0.01 0.01 0.02 0.04 0.05 0.06 0.08 0.09 0.10 0.12 0.16 0.13 0.16 0.22 0.29 0.33 0.25 0.08 0.02 0.02 0.02 0.04 0.09 0.14 0.14 0.16 0.15 0.21 0.26 0.30 0.33 0.35 0.46 0.75 1.26 1.86 2.55 2.93 2.56
0.01 0.00 0.00 0.00 0.01 0.02 0.04 0.05 0.07 0.08 0.09 0.11 0.14 0.16 0.19 0.16 0.17 0.20 0.24 0.34 0.49 0.35 0.09 0.02 0.02 0.03 0.08 0.13 0.13 0.12 0.11 0.13 0.18 0.21 0.25 0.28 0.33 0.49 0.77 1.21 1.74 2.58 3.11
0.00 0.00 0.00 0.01 0.03 0.04 0.05 0.07 0.08 0.09 0.12 0.14 0.18 0.20 0.20 0.21 0.23 0.26 0.27 0.28 0.35 0.43 0.25 0.03 0.02 0.04 0.09 0.16 0.17 0.13 0.13 0.14 0.15 0.16 0.17 0.18 0.22 0.32 0.51 0.80 1.16 1.66 2.47
0.00 0.00 0.01 0.03 0.06 0.07 0.07 0.09 0.10 0.11 0.14 0.15 0.17 0.22 0.23 0.25 0.33 0.35 0.37 0.36 0.31 0.34 0.32 0.08 0.02 0.04 0.12 0.20 0.19 0.14 0.14 0.13 0.11 0.13 0.15 0.16 0.17 0.23 0.35 0.53 0.75 1.05 1.60
0.00 0.00 0.02 0.05 0.09 0.11 0.10 0.13 0.14 0.14 0.17 0.19 0.20 0.24 0.27 0.30 0.35 0.39 0.47 0.47 0.39 0.33 0.35 0.21 0.05 0.04 0.12 0.22 0.26 0.20 0.17 0.15 0.11 0.12 0.14 0.16 0.18 0.21 0.27 0.37 0.52 0.72 1.03
0.00 0.00 0.02 0.07 0.14 0.20 0.18 0.15 0.19 0.20 0.19 0.21 0.24 0.30 0.34 0.38 0.36 0.40 0.49 0.53 0.47 0.40 0.37 0.31 0.14 0.06 0.10 0.22 0.32 0.29 0.25 0.23 0.17 0.14 0.15 0.16 0.19 0.22 0.26 0.29 0.39 0.52 0.68
0.00 0.01 0.02 0.06 0.17 0.29 0.32 0.33 0.36 0.31 0.25 0.20 0.19 0.23 0.35 0.48 0.52 0.56 0.56 0.54 0.55 0.53 0.47 0.39 0.26 0.15 0.13 0.21 0.35 0.39 0.34 0.30 0.26 0.21 0.18 0.17 0.19 0.23 0.24 0.24 0.24 0.33 0.50
0.00 0.01 0.01 0.03 0.13 0.39 0.63 0.81 0.73 0.46 0.30 0.22 0.16 0.19 0.30 0.50 0.65 0.81 0.84 0.73 0.69 0.70 0.63 0.55 0.45 0.33 0.25 0.28 0.36 0.42 0.46 0.41 0.39 0.32 0.24 0.19 0.19 0.19 0.19 0.24 0.27 0.30 0.37
0.01 0.01 0.01 0.02 0.07 0.35 0.71 0.95 0.68 0.36 0.25 0.21 0.19 0.18 0.26 0.45 0.58 0.64 0.72 0.72 0.75 0.85 0.87 0.77 0.65 0.52 0.40 0.34 0.36 0.43 0.53 0.57 0.52 0.45 0.34 0.26 0.25 0.23 0.19 0.18 0.23 0.26 0.30
0.01 0.01 0.01 0.01 0.02 0.18 0.55 0.81 0.55 0.26 0.18 0.17 0.17 0.16 0.20 0.32 0.43 0.50 0.52 0.49 0.50 0.61 0.80 0.86 0.80 0.65 0.55 0.44 0.45 0.47 0.50 0.59 0.57 0.63 0.55 0.44 0.34 0.29 0.25 0.26 0.29 0.26 0.28
0.01 0.01 0.01 0.01 0.01 0.08 0.41 0.69 0.48 0.20 0.14 0.14 0.16 0.14 0.10 0.19 0.32 0.46 0.53 0.47 0.44 0.53 0.72 0.85 0.94 0.85 0.71 0.65 0.67 0.68 0.65 0.57 0.59 0.76 0.74 0.70 0.61 0.44 0.37 0.34 0.33 0.27 0.27
0.01 0.02 0.01 0.01 0.01 0.03 0.27 0.64 0.50 0.19 0.11 0.12 0.14 0.13 0.08 0.09 0.23 0.33 0.30 0.27 0.29 0.41 0.54 0.67 0.69 0.65 0.60 0.66 0.79 0.88 0.84 0.72 0.72 0.93 0.93 0.82 0.90 0.81 0.72 0.59 0.49 0.39 0.31
0.02 0.02 0.01 0.01 0.01 0.01 0.13 0.53 0.58 0.21 0.11 0.09 0.10 0.09 0.11 0.13 0.19 0.19 0.13 0.16 0.29 0.37 0.36 0.36 0.37 0.36 0.36 0.42 0.60 0.85 1.03 0.96 0.87 1.03 1.15 0.96 1.03 1.00 1.10 1.03 0.73 0.51 0.39

GEFSMA_prec_meanprecacc_054.txt.gz
Total_Precipitation_Accumulation
0.00 0.00 0.00 0.00 0.01 0.01 0.02 0.03 0.05 0.08 0.09 0.09 0.11 0.11 0.12 0.11 0.09 0.10 0.09 0.10 0.10 0.09 0.09 0.16 0.32 0.63 0.93 1.00 1.06 0.99 0.88 0.82 0.68 0.54 0.52 0.64 0.73 0.71 0.65 0.71 0.64 0.48 0.41
0.00 0.00 0.00 0.00 0.00 0.00 0.00 0.00 0.01 0.02 0.02 0.03 0.04 0.05 0.07 0.08 0.08 0.11 0.12 0.14 0.13 0.11 0.10 0.11 0.18 0.37 0.69 0.94 1.10 1.28 1.13 0.99 0.93 0.75 0.57 0.55 0.65 0.69 0.69 0.69 0.73 0.64 0.49
0.00 0.00 0.00 0.00 0.00 0.00 0.00 0.00 0.00 0.00 0.00 0.01 0.01 0.01 0.02 0.03 0.05 0.07 0.09 0.13 0.17 0.15 0.13 0.11 0.12 0.20 0.39 0.66 0.94 1.25 1.44 1.22 1.14 1.09 0.86 0.61 0.58 0.63 0.68 0.72 0.74 0.79 0.66
0.00 0.00 0.00 0.00 0.00 0.00 0.00 0.00 0.00 0.00 0.00 0.00 0.00 0.00 0.00 0.00 0.01 0.02 0.05 0.08 0.14 0.17 0.15 0.15 0.14 0.15 0.23 0.40 0.65 1.00 1.58 1.57 1.39 1.33 1.29 0.98 0.70 0.64 0.63 0.69 0.75 0.79 0.85
0.00 0.00 0.00 0.00 0.00 0.00 0.00 0.00 0.00 0.00 0.00 0.00 0.00 0.00 0.00 0.00 0.00 0.00 0.01 0.03 0.06 0.13 0.17 0.17 0.18 0.17 0.17 0.23 0.42 0.73 1.36 1.73 1.73 1.68 1.64 1.48 1.09 0.80 0.69 0.67 0.74 0.79 0.87
0.00 0.00 0.00 0.00 0.00 0.00 0.00 0.00 0.00 0.00 0.00 0.00 0.00 0.00 0.00 0.00 0.00 0.00 0.00 0.01 0.02 0.04 0.11 0.15 0.18 0.18 0.16 0.16 0.22 0.39 0.80 1.28 1.57 1.74 1.79 1.86 1.67 1.18 0.86 0.74 0.73 0.82 0.86
0.00 0.00 0.00 0.00 0.00 0.00 0.00 0.00 0.00 0.00 0.00 0.01 0.02 0.01 0.00 0.00 0.00 0.00 0.00 0.00 0.01 0.01 0.04 0.08 0.15 0.20 0.19 0.17 0.16 0.19 0.36 0.73 1.13 1.41 1.58 1.75 1.99 1.77 1.26 0.94 0.81 0.82 0.91
0.00 0.00 0.00 0.00 0.00 0.00 0.00 0.00 0.00 0.01 0.01 0.01 0.05 0.09 0.05 0.01 0.00 0.00 0.00 0.00 0.00 0.01 0.02 0.04 0.08 0.15 0.20 0.20 0.14 0.13 0.17 0.37 0.75 1.15 1.40 1.57 1.83 2.08 1.83 1.32 1.02 0.93 0.97
0.00 0.00 0.00 0.00 0.00 0.00 0.00 0.00 0.01 0.02 0.03 0.02 0.04 0.18 0.28 0.16 0.05 0.01 0.00 0.01 0.01 0.01 0.01 0.02 0.05 0.08 0.14 0.21 0.19 0.13 0.11 0.18 0.40 0.77 1.23 1.53 1.73 1.99 2.12 1.83 1.36 1.09 1.04
0.00 0.00 0.00 0.00 0.00 0.00 0.01 0.01 0.01 0.02 0.06 0.08 0.05 0.08 0.18 0.25 0.28 0.13 0.02 0.02 0.03 0.03 0.02 0.02 0.03 0.05 0.08 0.15 0.21 0.21 0.16 0.15 0.24 0.49 0.88 1.42 1.79 1.99 2.26 2.17 1.81 1.37 1.15
0.00 0.00 0.00 0.00 0.00 0.00 0.01 0.01 0.02 0.03 0.06 0.11 0.12 0.11 0.09 0.09 0.15 0.25 0.11 0.03 0.04 0.04 0.04 0.03 0.03 0.04 0.05 0.10 0.15 0.20 0.24 0.25 0.33 0.44 0.66 1.11 1.79 2.10 2.44 2.59 2.22 1.69 1.33
0.01 0.01 0.00 0.00 0.00 0.01 0.01 0.02 0.03 0.04 0.06 0.08 0.11 0.13 0.17 0.19 0.16 0.21 0.20 0.07 0.03 0.03 0.04 0.04 0.05 0.07 0.09 0.10 0.12 0.21 0.28 0.33 0.43 0.48 0.51 0.78 1.33 2.00 2.40 2.69 2.54 2.00 1.54
0.02 0.01 0.00 0.00 0.00 0.01 0.02 0.03 0.05 0.05 0.06 0.09 0.11 0.12 0.14 0.16 0.16 0.22 0.26 0.15 0.07 0.02 0.02 0.03 0.05 0.08 0.11 0.13 0.14 0.19 0.24 0.30 0.37 0.42 0.41 0.49 0.78 1.35 2.02 2.54 2.80 2.51 1.94
0.02 0.01 0.00 0.00 0.01 0.01 0.02 0.04 0.05 0.07 0.08 0.09 0.10 0.12 0.16 0.13 0.16 0.22 0.29 0.33 0.26 0.09 0.02 0.02 0.02 0.04 0.09 0.14 0.14 0.16 0.15 0.21 0.27 0.31 0.35 0.38 0.50 0.80 1.32 1.95 2.67 3.11 2.76
0.01 0.00 0.00 0.00 0.01 0.02 0.04 0.05 0.07 0.08 0.09 0.12 0.14 0.16 0.19 0.16 0.17 0.20 0.24 0.35 0.51 0.37 0.09 0.02 0.02 0.03 0.08 0.13 0.13 0.12 0.11 0.13 0.19 0.23 0.27 0.30 0.37 0.52 0.82 1.28 1.83 2.71 3.27
0.00 0.00 0.00 0.01 0.03 0.04 0.05 0.07 0.08 0.09 0.12 0.14 0.18 0.20 0.20 0.21 0.23 0.26 0.28 0.28 0.37 0.46 0.27 0.03 0.02 0.04 0.09 0.16 0.17 0.13 0.13 0.14 0.16 0.17 0.19 0.20 0.24 0.34 0.53 0.83 1.21 1.75 2.60
0.00 0.00 0.01 0.03 0.06 0.07 0.08 0.10 0.10 0.12 0.15 0.15 0.17 0.22 0.23 0.25 0.33 0.35 0.38 0.37 0.33 0.36 0.36 0.08 0.02 0.04 0.12 0.20 0.19 0.14 0.14 0.13 0.11 0.13 0.15 0.17 0.19 0.25 0.37 0.56 0.78 1.10 1.69
0.00 0.00 0.02 0.05 0.09 0.11 0.11 0.13 0.14 0.14 0.17 0.19 0.20 0.24 0.27 0.30 0.35 0.40 0.47 0.48 0.40 0.35 0.39 0.23 0.06 0.04 0.12 0.22 0.26 0.20 0.17 0.15 0.11 0.12 0.15 0.17 0.20 0.24 0.29 0.40 0.54 0.75 1.08
0.00 0.00 0.02 0.07 0.15 0.21 0.19 0.16 0.20 0.20 0.20 0.21 0.24 0.30 0.34 0.38 0.36 0.40 0.50 0.54 0.48 0.40 0.39 0.34 0.15 0.07 0.10 0.22 0.32 0.29 0.25 0.23 0.17 0.14 0.15 0.17 0.20 0.24 0.27 0.31 0.41 0.54 0.71
0.00 0.01 0.02 0.06 0.17 0.30 0.33 0.34 0.37 0.32 0.26 0.20 0.19 0.23 0.35 0.48 0.53 0.56 0.57 0.55 0.57 0.56 0.49 0.43 0.28 0.16 0.14 0.22 0.37 0.41 0.35 0.31 0.27 0.22 0.19 0.17 0.20 0.24 0.25 0.25 0.26 0.35 0.52
0.00 0.01 0.01 0.03 0.14 0.40 0.65 0.82 0.74 0.47 0.30 0.22 0.17 0.19 0.30 0.50 0.66 0.83 0.88 0.77 0.74 0.77 0.69 0.61 0.50 0.37 0.28 0.31 0.40 0.45 0.49 0.43 0.39 0.33 0.24 0.19 0.19 0.19 0.20 0.24 0.28 0.31 0.39
0.01 0.01 0.01 0.02 0.08 0.36 0.73 0.96 0.69 0.37 0.25 0.21 0.19 0.18 0.26 0.46 0.58 0.65 0.74 0.75 0.79 0.90 0.94 0.85 0.72 0.57 0.43 0.36 0.39 0.47 0.57 0.60 0.53 0.46 0.34 0.26 0.25 0.23 0.20 0.19 0.23 0.26 0.31
0.01 0.01 0.01 0.02 0.03 0.19 0.56 0.82 0.56 0.27 0.19 0.18 0.17 0.16 0.20 0.33 0.43 0.50 0.52 0.50 0.51 0.63 0.83 0.92 0.86 0.68 0.57 0.46 0.49 0.51 0.54 0.62 0.60 0.64 0.57 0.46 0.35 0.30 0.25 0.26 0.29 0.26 0.29
0.01 0.01 0.02 0.02 0.02 0.09 0.42 0.71 0.49 0.22 0.14 0.15 0.16 0.14 0.10 0.19 0.32 0.46 0.54 0.49 0.46 0.54 0.73 0.86 0.96 0.88 0.75 0.71 0.77 0.79 0.73 0.62 0.61 0.77 0.76 0.74 0.62 0.45 0.37 0.34 0.33 0.28 0.27
0.02 0.02 0.02 0.02 0.02 0.03 0.28 0.66 0.51 0.20 0.12 0.12 0.15 0.13 0.08 0.09 0.23 0.34 0.32 0.31 0.31 0.42 0.54 0.68 0.71 0.68 0.63 0.70 0.85 0.98 0.91 0.77 0.74 0.93 0.95 0.86 0.92 0.82 0.72 0.59 0.49 0.40 0.32
0.02 0.02 0.02 0.02 0.01 0.02 0.15 0.55 0.60 0.23 0.12 0.09 0.10 0.09 0.11 0.13 0.20 0.21 0.16 0.19 0.31 0.38 0.37 0.37 0.38 0.36 0.37 0.43 0.62 0.91 1.09 1.02 0.90 1.05 1.16 0.99 1.05 1.04 1.13 1.05 0.76 0.53 0.40

GEFSMA_prec_meanprecacc_060.txt.gz
Total_Precipitation_Accumulation
0.00 0.00 0.00 0.00 0.01 0.01 0.02 0.03 0.05 0.08 0.09 0.09 0.11 0.11 0.12 0.11 0.09 0.10 0.09 0.10 0.10 0.09 0.09 0.16 0.32 0.64 0.94 1.01 1.07 1.00 0.89 0.83 0.69 0.55 0.53 0.65 0.74 0.72 0.66 0.71 0.64 0.48 0.41
0.00 0.00 0.00 0.00 0.00 0.00 0.00 0.00 0.01 0.02 0.02 0.03 0.04 0.05 0.07 0.08 0.08 0.11 0.12 0.14 0.13 0.11 0.10 0.11 0.18 0.37 0.70 0.94 1.11 1.29 1.14 1.00 0.94 0.76 0.58 0.57 0.66 0.70 0.70 0.69 0.73 0.64 0.49
0.00 0.00 0.00 0.00 0.00 0.00 0.00 0.00 0.00 0.00 0.00 0.01 0.01 0.01 0.02 0.03 0.05 0.07 0.09 0.13 0.17 0.15 0.13 0.11 0.12 0.20 0.39 0.67 0.94 1.26 1.45 1.23 1.15 1.10 0.87 0.62 0.59 0.65 0.69 0.73 0.75 0.80 0.67
0.00 0.00 0.00 0.00 0.00 0.00 0.00 0.00 0.00 0.00 0.00 0.00 0.00 0.00 0.00 0.00 0.01 0.02 0.05 0.08 0.14 0.17 0.15 0.15 0.14 0.15 0.23 0.40 0.65 1.00 1.58 1.57 1.40 1.34 1.30 0.99 0.71 0.65 0.65 0.70 0.76 0.80 0.86
0.00 0.00 0.00 0.00 0.00 0.00 0.00 0.00 0.00 0.00 0.00 0.00 0.00 0.00 0.00 0.00 0.00 0.00 0.01 0.03 0.06 0.13 0.17 0.17 0.18 0.17 0.17 0.23 0.42 0.73 1.36 1.73 1.73 1.69 1.65 1.49 1.10 0.81 0.71 0.69 0.76 0.81 0.88
0.00 0.00 0.00 0.00 0.00 0.00 0.00 0.00 0.00 0.00 0.00 0.00 0.00 0.00 0.00 0.00 0.00 0.00 0.00 0.01 0.02 0.04 0.11 0.15 0.18 0.18 0.16 0.16 0.22 0.39 0.80 1.28 1.57 1.75 1.81 1.87 1.68 1.20 0.88 0.76 0.75 0.84 0.88
0.00 0.00 0.00 0.00 0.00 0.00 0.00 0.00 0.00 0.00 0.00 0.01 0.02 0.01 0.00 0.00 0.00 0.00 0.00 0.00 0.01 0.01 0.04 0.08 0.15 0.20 0.19 0.17 0.16 0.19 0.36 0.73 1.13 1.41 1.59 1.77 2.01 1.80 1.29 0.96 0.83 0.85 0.94
0.00 0.00 0.00 0.00 0.00 0.00 0.00 0.00 0.00 0.01 0.01 0.01 0.05 0.09 0.05 0.01 0.00 0.00 0.00 0.00 0.00 0.01 0.02 0.04 0.08 0.15 0.20 0.20 0.14 0.13 0.17 0.37 0.75 1.16 1.42 1.59 1.85 2.10 1.86 1.34 1.05 0.97 1.00
0.00 0.00 0.00 0.00 0.00 0.00 0.00 0.00 0.01 0.02 0.03 0.02 0.04 0.18 0.28 0.16 0.05 0.01 0.00 0.01 0.01 0.01 0.01 0.02 0.05 0.08 0.14 0.21 0.19 0.13 0.11 0.18 0.40 0.78 1.25 1.55 1.75 2.02 2.16 1.87 1.41 1.14 1.10
0.00 0.00 0.00 0.00 0.00 0.00 0.01 0.01 0.01 0.02 0.06 0.08 0.05 0.08 0.18 0.25 0.28 0.13 0.02 0.02 0.03 0.03 0.02 0.02 0.03 0.05 0.08 0.15 0.21 0.21 0.16 0.15 0.24 0.50 0.90 1.44 1.82 2.02 2.31 2.23 1.87 1.44 1.22
0.00 0.00 0.00 0.00 0.00 0.00 0.01 0.01 0.02 0.03 0.06 0.11 0.12 0.11 0.09 0.09 0.15 0.25 0.11 0.03 0.04 0.04 0.04 0.03 0.03 0.04 0.05 0.10 0.15 0.20 0.24 0.25 0.33 0.44 0.68 1.13 1.82 2.13 2.49 2.65 2.28 1.76 1.39
0.01 0.01 0.00 0.00 0.00 0.01 0.01 0.02 0.03 0.04 0.06 0.08 0.11 0.13 0.17 0.19 0.16 0.21 0.20 0.07 0.03 0.03 0.04 0.04 0.05 0.07 0.09 0.10 0.12 0.21 0.28 0.33 0.43 0.48 0.51 0.79 1.35 2.02 2.43 2.73 2.58 2.05 1.59
0.02 0.01 0.00 0.00 0.00 0.01 0.02 0.03 0.05 0.05 0.06 0.09 0.11 0.12 0.14 0.16 0.16 0.22 0.26 0.15 0.07 0.02 0.02 0.03 0.05 0.08 0.11 0.13 0.14 0.19 0.24 0.30 0.37 0.42 0.41 0.50 0.80 1.36 2.04 2.56 2.83 2.55 1.99
0.02 0.01 0.00 0.00 0.01 0.01 0.02 0.04 0.05 0.07 0.08 0.09 0.10 0.12 0.16 0.13 0.16 0.22 0.29 0.33 0.26 0.09 0.02 0.02 0.02 0.04 0.09 0.14 0.14 0.16 0.15 0.21 0.27 0.31 0.35 0.38 0.51 0.81 1.34 1.97 2.70 3.14 2.80
0.01 0.00 0.00 0.00 0.01 0.02 0.04 0.05 0.07 0.08 0.09 0.12 0.14 0.16 0.19 0.17 0.17 0.20 0.24 0.35 0.51 0.37 0.09 0.02 0.02 0.03 0.08 0.13 0.13 0.12 0.11 0.13 0.19 0.23 0.27 0.31 0.38 0.54 0.84 1.31 1.86 2.74 3.31
0.00 0.00 0.00 0.01 0.03 0.04 0.05 0.07 0.08 0.09 0.12 0.14 0.18 0.20 0.21 0.21 0.24 0.26 0.28 0.28 0.37 0.46 0.27 0.03 0.02 0.04 0.09 0.16 0.17 0.13 0.13 0.14 0.16 0.17 0.19 0.20 0.25 0.35 0.55 0.86 1.24 1.78 2.64
0.00 0.00 0.01 0.03 0.06 0.07 0.08 0.10 0.10 0.12 0.15 0.15 0.18 0.22 0.24 0.26 0.33 0.35 0.38 0.37 0.33 0.37 0.36 0.09 0.02 0.04 0.12 0.20 0.19 0.14 0.14 0.13 0.11 0.13 0.15 0.17 0.20 0.26 0.39 0.59 0.82 1.14 1.73
0.00 0.00 0.02 0.05 0.09 0.11 0.11 0.14 0.15 0.15 0.18 0.19 0.21 0.25 0.28 0.30 0.36 0.40 0.47 0.48 0.40 0.35 0.39 0.23 0.06 0.04 0.12 0.22 0.26 0.20 0.17 0.15 0.11 0.12 0.15 0.18 0.22 0.26 0.32 0.43 0.59 0.80 1.13
0.00 0.00 0.02 0.07 0.15 0.21 0.19 0.16 0.20 0.21 0.20 0.22 0.25 0.31 0.35 0.39 0.38 0.40 0.50 0.54 0.48 0.40 0.39 0.35 0.15 0.07 0.10 0.22 0.32 0.29 0.25 0.23 0.17 0.14 0.15 0.17 0.21 0.25 0.29 0.34 0.45 0.59 0.75
0.00 0.01 0.02 0.06 0.17 0.30 0.33 0.34 0.37 0.32 0.26 0.21 0.19 0.24 0.36 0.49 0.54 0.57 0.58 0.56 0.57 0.56 0.50 0.44 0.29 0.17 0.14 0.22 0.37 0.42 0.36 0.32 0.27 0.22 0.19 0.17 0.20 0.24 0.27 0.27 0.28 0.38 0.55
0.00 0.01 0.01 0.03 0.14 0.40 0.65 0.82 0.74 0.47 0.31 0.23 0.17 0.19 0.31 0.51 0.67 0.84 0.89 0.78 0.75 0.78 0.71 0.63 0.52 0.38 0.29 0.32 0.41 0.46 0.50 0.43 0.40 0.33 0.24 0.19 0.19 0.19 0.20 0.24 0.28 0.31 0.40
0.01 0.01 0.01 0.02 0.08 0.36 0.73 0.96 0.70 0.37 0.26 0.22 0.20 0.19 0.27 0.47 0.60 0.67 0.76 0.76 0.81 0.93 0.98 0.89 0.75 0.59 0.44 0.37 0.40 0.48 0.58 0.62 0.54 0.46 0.35 0.27 0.25 0.23 0.20 0.19 0.23 0.26 0.32
0.01 0.01 0.01 0.02 0.03 0.19 0.56 0.83 0.57 0.28 0.20 0.19 0.19 0.18 0.21 0.33 0.44 0.52 0.54 0.52 0.54 0.66 0.86 0.95 0.89 0.70 0.58 0.47 0.50 0.53 0.55 0.64 0.61 0.64 0.58 0.47 0.35 0.30 0.25 0.27 0.29 0.27 0.30
0.01 0.01 0.02 0.02 0.02 0.09 0.42 0.71 0.51 0.24 0.16 0.16 0.17 0.15 0.12 0.20 0.33 0.48 0.55 0.51 0.48 0.55 0.74 0.88 0.98 0.89 0.76 0.72 0.79 0.83 0.78 0.67 0.63 0.78 0.77 0.76 0.63 0.45 0.37 0.34 0.34 0.29 0.29
0.02 0.02 0.02 0.02 0.02 0.04 0.28 0.67 0.53 0.23 0.15 0.14 0.16 0.14 0.10 0.11 0.24 0.36 0.36 0.34 0.32 0.43 0.55 0.69 0.73 0.69 0.65 0.73 0.89 1.03 0.97 0.81 0.76 0.94 0.95 0.87 0.92 0.82 0.73 0.60 0.50 0.41 0.33
0.02 0.02 0.02 0.02 0.02 0.02 0.15 0.55 0.61 0.25 0.15 0.11 0.12 0.12 0.12 0.15 0.21 0.23 0.20 0.23 0.33 0.39 0.38 0.38 0.38 0.37 0.37 0.43 0.63 0.92 1.11 1.05 0.92 1.06 1.16 1.00 1.07 1.06 1.16 1.06 0.77 0.55 0.43

GEFSMA_prec_meanprecacc_066.txt.gz
Total_Precipitation_Accumulation
0.00 0.00 0.00 0.00 0.01 0.01 0.02 0.03 0.05 0.08 0.09 0.09 0.11 0.11 0.12 0.11 0.09 0.10 0.09 0.10 0.10 0.09 0.09 0.16 0.32 0.64 0.94 1.01 1.07 1.00 0.89 0.83 0.70 0.56 0.54 0.66 0.75 0.72 0.67 0.72 0.65 0.49 0.42
0.00 0.00 0.00 0.00 0.00 0.00 0.00 0.00 0.01 0.02 0.02 0.03 0.04 0.05 0.07 0.08 0.08 0.11 0.12 0.14 0.13 0.11 0.10 0.11 0.18 0.37 0.70 0.94 1.11 1.29 1.14 1.00 0.94 0.77 0.58 0.57 0.66 0.71 0.71 0.70 0.74 0.65 0.50
0.00 0.00 0.00 0.00 0.00 0.00 0.00 0.00 0.00 0.00 0.00 0.01 0.01 0.01 0.02 0.03 0.05 0.07 0.09 0.13 0.17 0.15 0.13 0.11 0.12 0.20 0.39 0.67 0.94 1.26 1.45 1.23 1.15 1.10 0.87 0.63 0.59 0.65 0.70 0.74 0.76 0.81 0.68
0.00 0.00 0.00 0.00 0.00 0.00 0.00 0.00 0.00 0.00 0.00 0.00 0.00 0.00 0.00 0.00 0.01 0.02 0.05 0.08 0.14 0.17 0.15 0.15 0.14 0.15 0.23 0.40 0.65 1.00 1.58 1.57 1.40 1.34 1.31 1.00 0.72 0.66 0.66 0.72 0.78 0.82 0.88
0.00 0.00 0.00 0.00 0.00 0.00 0.00 0.00 0.00 0.00 0.00 0.00 0.00 0.00 0.00 0.00 0.00 0.00 0.01 0.03 0.06 0.13 0.17 0.17 0.18 0.17 0.17 0.23 0.42 0.73 1.36 1.73 1.73 1.69 1.66 1.50 1.11 0.82 0.72 0.71 0.77 0.83 0.90
0.00 0.00 0.00 0.00 0.00 0.00 0.00 0.00 0.00 0.00 0.00 0.00 0.00 0.00 0.00 0.00 0.00 0.00 0.00 0.01 0.02 0.04 0.11 0.15 0.18 0.18 0.16 0.16 0.22 0.39 0.80 1.28 1.57 1.75 1.81 1.88 1.69 1.21 0.90 0.78 0.77 0.86 0.90
0.00 0.00 0.00 0.00 0.00 0.00 0.00 0.00 0.00 0.00 0.00 0.01 0.02 0.01 0.00 0.00 0.00 0.00 0.00 0.00 0.01 0.01 0.04 0.08 0.15 0.20 0.19 0.17 0.16 0.19 0.36 0.73 1.13 1.41 1.59 1.77 2.01 1.81 1.30 0.98 0.86 0.87 0.96
0.00 0.00 0.00 0.00 0.00 0.00 0.00 0.00 0.00 0.01 0.01 0.01 0.05 0.09 0.05 0.01 0.00 0.00 0.00 0.00 0.00 0.01 0.02 0.04 0.08 0.15 0.20 0.20 0.14 0.13 0.17 0.37 0.75 1.16 1.42 1.59 1.86 2.12 1.88 1.37 1.08 0.99 1.04
0.00 0.00 0.00 0.00 0.00 0.00 0.00 0.00 0.01 0.02 0.03 0.02 0.04 0.18 0.28 0.16 0.05 0.01 0.00 0.01 0.01 0.01 0.01 0.02 0.05 0.08 0.14 0.21 0.19 0.13 0.11 0.18 0.40 0.78 1.25 1.56 1.76 2.04 2.18 1.90 1.44 1.18 1.14
0.00 0.00 0.00 0.00 0.00 0.00 0.01 0.01 0.01 0.02 0.06 0.08 0.05 0.08 0.18 0.25 0.28 0.13 0.02 0.02 0.03 0.03 0.02 0.02 0.03 0.05 0.08 0.15 0.21 0.21 0.16 0.15 0.24 0.50 0.90 1.45 1.84 2.05 2.35 2.27 1.91 1.48 1.27
0.00 0.00 0.00 0.00 0.00 0.00 0.01 0.01 0.02 0.03 0.06 0.11 0.12 0.11 0.09 0.09 0.15 0.25 0.11 0.03 0.04 0.04 0.04 0.03 0.03 0.04 0.05 0.10 0.15 0.20 0.24 0.25 0.33 0.44 0.68 1.14 1.84 2.16 2.52 2.68 2.32 1.80 1.43
0.01 0.01 0.00 0.00 0.00 0.01 0.01 0.02 0.03 0.04 0.06 0.08 0.11 0.13 0.17 0.19 0.16 0.21 0.20 0.07 0.03 0.03 0.04 0.04 0.05 0.07 0.09 0.10 0.12 0.21 0.28 0.33 0.43 0.48 0.52 0.79 1.36 2.04 2.45 2.76 2.61 2.08 1.62
0.02 0.01 0.00 0.00 0.00 0.01 0.02 0.03 0.05 0.05 0.06 0.09 0.11 0.12 0.14 0.16 0.16 0.22 0.26 0.15 0.07 0.02 0.02 0.03 0.05 0.08 0.11 0.13 0.14 0.19 0.24 0.30 0.37 0.42 0.41 0.50 0.80 1.37 2.05 2.57 2.85 2.57 2.01
0.02 0.01 0.00 0.00 0.01 0.01 0.02 0.04 0.05 0.07 0.08 0.09 0.10 0.12 0.16 0.13 0.16 0.22 0.29 0.33 0.26 0.09 0.02 0.02 0.02 0.04 0.09 0.14 0.14 0.16 0.15 0.21 0.27 0.31 0.35 0.38 0.51 0.82 1.35 1.98 2.72 3.16 2.82
0.01 0.00 0.00 0.00 0.01 0.02 0.04 0.05 0.07 0.08 0.09 0.12 0.14 0.16 0.19 0.17 0.17 0.20 0.24 0.35 0.51 0.37 0.09 0.02 0.02 0.03 0.08 0.13 0.13 0.12 0.11 0.13 0.19 0.23 0.27 0.31 0.38 0.55 0.85 1.32 1.87 2.75 3.33
0.00 0.00 0.00 0.01 0.03 0.04 0.05 0.07 0.08 0.09 0.12 0.14 0.18 0.20 0.21 0.21 0.24 0.26 0.28 0.29 0.37 0.46 0.27 0.03 0.02 0.04 0.09 0.16 0.17 0.13 0.13 0.14 0.16 0.17 0.19 0.20 0.25 0.35 0.56 0.87 1.25 1.80 2.66
0.00 0.00 0.01 0.03 0.06 0.07 0.08 0.10 0.10 0.12 0.15 0.15 0.18 0.22 0.24 0.26 0.33 0.35 0.38 0.37 0.33 0.37 0.37 0.09 0.02 0.04 0.12 0.20 0.19 0.14 0.14 0.13 0.11 0.13 0.15 0.17 0.20 0.26 0.40 0.60 0.83 1.16 1.75
0.00 0.00 0.02 0.05 0.09 0.11 0.11 0.14 0.15 0.15 0.18 0.19 0.21 0.25 0.28 0.30 0.36 0.40 0.48 0.49 0.41 0.35 0.39 0.24 0.06 0.04 0.12 0.23 0.26 0.20 0.17 0.15 0.11 0.12 0.15 0.18 0.22 0.26 0.33 0.45 0.60 0.82 1.15
0.00 0.00 0.02 0.07 0.15 0.21 0.19 0.16 0.20 0.21 0.20 0.22 0.25 0.31 0.35 0.39 0.38 0.41 0.51 0.55 0.49 0.41 0.40 0.35 0.16 0.07 0.10 0.22 0.32 0.30 0.25 0.23 0.17 0.14 0.15 0.17 0.21 0.26 0.30 0.35 0.46 0.60 0.77
0.00 0.01 0.02 0.06 0.17 0.30 0.33 0.34 0.37 0.32 0.26 0.21 0.19 0.24 0.36 0.49 0.54 0.58 0.59 0.57 0.58 0.57 0.51 0.45 0.30 0.17 0.15 0.22 0.38 0.43 0.36 0.32 0.27 0.22 0.19 0.17 0.20 0.24 0.27 0.28 0.29 0.38 0.56
0.00 0.01 0.01 0.03 0.14 0.40 0.65 0.82 0.74 0.47 0.31 0.23 0.17 0.19 0.31 0.51 0.67 0.85 0.90 0.79 0.77 0.81 0.73 0.65 0.54 0.39 0.29 0.32 0.42 0.47 0.51 0.43 0.40 0.33 0.24 0.19 0.19 0.19 0.20 0.24 0.28 0.31 0.40
0.01 0.01 0.01 0.02 0.08 0.36 0.73 0.96 0.70 0.37 0.26 0.22 0.20 0.20 0.27 0.47 0.60 0.68 0.78 0.79 0.83 0.96 1.00 0.91 0.76 0.61 0.44 0.37 0.40 0.49 0.60 0.63 0.55 0.46 0.35 0.27 0.25 0.23 0.20 0.19 0.23 0.27 0.32
0.01 0.01 0.01 0.02 0.03 0.19 0.56 0.83 0.57 0.28 0.20 0.19 0.19 0.18 0.22 0.34 0.45 0.53 0.56 0.56 0.60 0.73 0.92 1.00 0.93 0.71 0.58 0.47 0.51 0.56 0.58 0.66 0.62 0.64 0.58 0.48 0.35 0.30 0.25 0.27 0.29 0.27 0.31
0.01 0.01 0.02 0.02 0.02 0.09 0.43 0.71 0.51 0.25 0.17 0.16 0.17 0.15 0.12 0.20 0.33 0.49 0.58 0.54 0.51 0.59 0.81 0.98 1.10 0.95 0.78 0.73 0.81 0.86 0.82 0.71 0.66 0.78 0.78 0.77 0.63 0.45 0.37 0.34 0.34 0.29 0.29
0.02 0.02 0.02 0.02 0.02 0.04 0.28 0.67 0.54 0.24 0.15 0.14 0.16 0.14 0.10 0.12 0.24 0.38 0.41 0.38 0.34 0.44 0.56 0.73 0.81 0.78 0.71 0.77 0.93 1.11 1.07 0.89 0.81 0.94 0.95 0.88 0.93 0.82 0.73 0.60 0.50 0.41 0.33
0.02 0.02 0.02 0.02 0.02 0.02 0.15 0.55 0.61 0.26 0.15 0.12 0.13 0.12 0.13 0.16 0.22 0.26 0.26 0.29 0.36 0.40 0.38 0.40 0.41 0.41 0.43 0.49 0.69 0.99 1.19 1.11 0.96 1.08 1.16 1.00 1.07 1.06 1.17 1.06 0.77 0.55 0.43

GEFSMA_prec_meanprecacc_072.txt.gz
Total_Precipitation_Accumulation
0.00 0.00 0.00 0.00 0.01 0.01 0.02 0.03 0.05 0.08 0.09 0.09 0.11 0.11 0.12 0.11 0.09 0.10 0.09 0.10 0.10 0.09 0.09 0.16 0.32 0.64 0.94 1.01 1.07 1.00 0.89 0.83 0.70 0.56 0.54 0.66 0.75 0.72 0.67 0.72 0.65 0.49 0.42
0.00 0.00 0.00 0.00 0.00 0.00 0.00 0.00 0.01 0.02 0.02 0.03 0.04 0.05 0.07 0.08 0.08 0.11 0.12 0.14 0.13 0.11 0.10 0.11 0.18 0.37 0.70 0.94 1.11 1.29 1.14 1.00 0.94 0.77 0.58 0.57 0.67 0.71 0.72 0.71 0.75 0.65 0.50
0.00 0.00 0.00 0.00 0.00 0.00 0.00 0.00 0.00 0.00 0.00 0.01 0.01 0.01 0.02 0.03 0.05 0.07 0.09 0.13 0.17 0.15 0.13 0.11 0.12 0.20 0.39 0.67 0.94 1.26 1.45 1.23 1.15 1.10 0.87 0.63 0.60 0.66 0.71 0.75 0.77 0.81 0.68
0.00 0.00 0.00 0.00 0.00 0.00 0.00 0.00 0.00 0.00 0.00 0.00 0.00 0.00 0.00 0.00 0.01 0.02 0.05 0.08 0.14 0.17 0.15 0.15 0.14 0.15 0.23 0.40 0.65 1.00 1.58 1.57 1.40 1.34 1.31 1.00 0.72 0.66 0.66 0.72 0.79 0.83 0.89
0.00 0.00 0.00 0.00 0.00 0.00 0.00 0.00 0.00 0.00 0.00 0.00 0.00 0.00 0.00 0.00 0.00 0.00 0.01 0.03 0.06 0.13 0.17 0.17 0.18 0.17 0.17 0.23 0.42 0.73 1.36 1.73 1.74 1.69 1.66 1.50 1.11 0.83 0.73 0.71 0.78 0.84 0.91
0.00 0.00 0.00 0.00 0.00 0.00 0.00 0.00 0.00 0.00 0.00 0.00 0.00 0.00 0.00 0.00 0.00 0.00 0.00 0.01 0.02 0.04 0.11 0.15 0.18 0.18 0.16 0.16 0.22 0.39 0.80 1.28 1.57 1.75 1.81 1.88 1.69 1.22 0.90 0.79 0.78 0.87 0.92
0.00 0.00 0.00 0.00 0.00 0.00 0.00 0.00 0.00 0.00 0.00 0.01 0.02 0.01 0.00 0.00 0.00 0.00 0.00 0.00 0.01 0.01 0.04 0.08 0.15 0.20 0.19 0.17 0.16 0.19 0.36 0.73 1.13 1.41 1.59 1.78 2.01 1.81 1.31 0.99 0.87 0.88 0.98
0.00 0.00 0.00 0.00 0.00 0.00 0.00 0.00 0.00 0.01 0.01 0.01 0.05 0.09 0.05 0.01 0.00 0.00 0.00 0.00 0.00 0.01 0.02 0.04 0.08 0.15 0.20 0.20 0.14 0.13 0.17 0.37 0.75 1.16 1.42 1.59 1.86 2.12 1.89 1.38 1.09 1.01 1.05
0.00 0.00 0.00 0.00 0.00 0.00 0.00 0.00 0.01 0.02 0.03 0.02 0.04 0.18 0.28 0.16 0.05 0.01 0.00 0.01 0.01 0.01 0.01 0.02 0.05 0.08 0.14 0.21 0.19 0.13 0.11 0.18 0.40 0.78 1.25 1.56 1.76 2.05 2.19 1.91 1.46 1.20 1.16
0.00 0.00 0.00 0.00 0.00 0.00 0.01 0.01 0.01 0.02 0.06 0.08 0.05 0.08 0.18 0.25 0.28 0.13 0.02 0.02 0.03 0.03 0.02 0.02 0.03 0.05 0.08 0.15 0.21 0.21 0.16 0.15 0.24 0.50 0.90 1.45 1.84 2.05 2.36 2.29 1.94 1.51 1.30
0.00 0.00 0.00 0.00 0.00 0.00 0.01 0.01 0.02 0.03 0.06 0.11 0.12 0.11 0.09 0.09 0.15 0.25 0.11 0.03 0.04 0.04 0.04 0.03 0.03 0.04 0.05 0.10 0.15 0.20 0.24 0.25 0.33 0.44 0.68 1.14 1.84 2.16 2.53 2.70 2.35 1.83 1.46
0.01 0.01 0.00 0.00 0.00 0.01 0.01 0.02 0.03 0.04 0.06 0.08 0.11 0.13 0.17 0.19 0.16 0.21 0.20 0.07 0.03 0.03 0.04 0.04 0.05 0.07 0.09 0.10 0.12 0.21 0.28 0.33 0.43 0.48 0.52 0.79 1.36 2.04 2.46 2.77 2.62 2.10 1.64
0.02 0.01 0.00 0.00 0.00 0.01 0.02 0.03 0.05 0.05 0.06 0.09 0.11 0.12 0.14 0.16 0.16 0.22 0.26 0.15 0.07 0.02 0.02 0.03 0.05 0.08 0.11 0.13 0.14 0.19 0.24 0.30 0.37 0.42 0.41 0.50 0.80 1.37 2.05 2.58 2.86 2.58 2.03
0.02 0.01 0.00 0.00 0.01 0.01 0.02 0.04 0.05 0.07 0.08 0.09 0.10 0.12 0.16 0.13 0.16 0.22 0.29 0.33 0.26 0.09 0.02 0.02 0.02 0.04 0.09 0.14 0.14 0.16 0.15 0.21 0.27 0.31 0.35 0.38 0.51 0.82 1.35 1.98 2.72 3.16 2.83
0.01 0.00 0.00 0.00 0.01 0.02 0.04 0.05 0.07 0.08 0.09 0.12 0.14 0.16 0.19 0.17 0.17 0.20 0.24 0.35 0.51 0.37 0.09 0.02 0.02 0.03 0.08 0.13 0.13 0.12 0.11 0.13 0.19 0.23 0.27 0.31 0.38 0.55 0.85 1.32 1.88 2.76 3.33
0.00 0.00 0.00 0.01 0.03 0.04 0.05 0.07 0.08 0.09 0.12 0.14 0.18 0.20 0.21 0.21 0.24 0.26 0.28 0.29 0.37 0.46 0.27 0.03 0.02 0.04 0.09 0.16 0.17 0.13 0.13 0.14 0.16 0.18 0.19 0.21 0.25 0.36 0.56 0.87 1.26 1.80 2.66
0.00 0.00 0.01 0.03 0.06 0.07 0.08 0.10 0.10 0.12 0.15 0.15 0.18 0.22 0.24 0.26 0.33 0.35 0.38 0.37 0.33 0.37 0.37 0.09 0.02 0.04 0.12 0.20 0.19 0.14 0.14 0.13 0.11 0.13 0.16 0.18 0.20 0.27 0.40 0.60 0.84 1.16 1.76
0.00 0.00 0.02 0.05 0.09 0.11 0.11 0.14 0.15 0.15 0.18 0.19 0.21 0.25 0.28 0.30 0.36 0.40 0.48 0.49 0.41 0.35 0.40 0.24 0.06 0.04 0.12 0.23 0.26 0.20 0.17 0.15 0.11 0.12 0.15 0.18 0.22 0.27 0.34 0.45 0.61 0.82 1.15
0.00 0.00 0.02 0.07 0.15 0.21 0.19 0.16 0.20 0.21 0.20 0.22 0.25 0.31 0.35 0.39 0.38 0.41 0.51 0.55 0.49 0.41 0.40 0.36 0.16 0.07 0.10 0.22 0.32 0.30 0.25 0.23 0.18 0.14 0.15 0.17 0.21 0.26 0.30 0.35 0.47 0.61 0.78
0.00 0.01 0.02 0.06 0.17 0.30 0.33 0.34 0.37 0.32 0.26 0.21 0.19 0.24 0.36 0.49 0.54 0.58 0.59 0.57 0.58 0.58 0.52 0.46 0.30 0.17 0.15 0.22 0.38 0.43 0.37 0.32 0.27 0.22 0.19 0.17 0.20 0.25 0.27 0.28 0.29 0.39 0.57
0.00 0.01 0.01 0.03 0.14 0.40 0.65 0.82 0.74 0.47 0.31 0.23 0.17 0.19 0.31 0.51 0.67 0.85 0.91 0.79 0.77 0.81 0.74 0.66 0.54 0.39 0.30 0.33 0.42 0.47 0.52 0.44 0.40 0.33 0.24 0.19 0.19 0.19 0.20 0.24 0.28 0.32 0.40
0.01 0.01 0.01 0.02 0.08 0.36 0.73 0.96 0.70 0.37 0.26 0.22 0.20 0.20 0.27 0.47 0.60 0.68 0.79 0.80 0.84 0.97 1.02 0.92 0.77 0.61 0.44 0.38 0.40 0.50 0.62 0.65 0.56 0.46 0.35 0.27 0.25 0.23 0.20 0.19 0.23 0.27 0.32
0.01 0.01 0.01 0.02 0.03 0.19 0.56 0.83 0.58 0.29 0.21 0.19 0.19 0.18 0.22 0.34 0.45 0.54 0.57 0.57 0.62 0.75 0.95 1.03 0.96 0.72 0.58 0.47 0.52 0.58 0.60 0.67 0.62 0.64 0.59 0.48 0.35 0.30 0.25 0.27 0.29 0.27 0.31
0.01 0.01 0.02 0.02 0.02 0.09 0.43 0.72 0.52 0.25 0.17 0.16 0.17 0.15 0.12 0.20 0.33 0.49 0.58 0.54 0.51 0.60 0.82 1.01 1.16 0.99 0.80 0.74 0.82 0.88 0.84 0.74 0.68 0.79 0.79 0.79 0.63 0.45 0.37 0.34 0.34 0.29 0.30
0.02 0.02 0.02 0.02 0.02 0.04 0.28 0.67 0.54 0.24 0.15 0.14 0.16 0.15 0.10 0.12 0.25 0.39 0.42 0.39 0.35 0.44 0.56 0.75 0.84 0.84 0.77 0.81 0.96 1.17 1.14 0.98 0.85 0.95 0.95 0.89 0.93 0.82 0.73 0.60 0.50 0.41 0.34
0.02 0.02 0.02 0.02 0.02 0.02 0.15 0.55 0.62 0.26 0.15 0.12 0.13 0.12 0.13 0.16 0.22 0.27 0.28 0.31 0.39 0.41 0.39 0.41 0.43 0.45 0.49 0.58 0.81 1.14 1.31 1.19 1.01 1.10 1.16 1.00 1.07 1.06 1.18 1.06 0.77 0.55 0.43